Weather History for Santa Fe, NM

Change the Weather History Date:

Friday, October 4, 2013

  Actual Average Record
Temperature  
Mean Temperature 52 °F -  
Max Temperature 62 °F 77 °F 80 °F (2007)
Min Temperature 44 °F 34 °F 33 °F (1980)
Degree Days  
Heating Degree Days 12    
Growing Degree Days 2 (Base 50)    
Moisture  
Dew Point 16 °F    
Average Humidity 27    
Maximum Humidity 55    
Minimum Humidity 7    
Precipitation  
Precipitation 0.00 in - - ()
Sea Level Pressure  
Sea Level Pressure 29.94 in    
Wind  
Wind Speed 7 mph (WNW)    
Max Wind Speed 20 mph    
Max Gust Speed 30 mph    
Visibility 10 miles    
Events      
Averages and records for this station are not official NWS values.
T = Trace of Precipitation, MM = Missing Value Source: NWS Daily Summary

Daily Weather History Graph

Daily Weather History Graph

Search for Another Location

Airport:

Trip Planner

Search our weather history database for the weather conditions in past years. The results will help you decide how hot, cold, wet, or windy it might be!

Date:

Astronomy

Oct. 04, 2013 Rise Set
Actual Time 7:01 AM MDT 6:43 PM MDT
Civil Twilight 6:36 AM MDT 7:08 PM MDT
Nautical Twilight 6:06 AM MDT 7:38 PM MDT
Astronomical Twilight 5:37 AM MDT 8:07 PM MDT
Moon 6:39 AM MDT (10/4) 6:28 PM MDT (10/4)
Length of Visible Light 12h 32m
Length of Day
11h 41m
Waning Crescent, 0% of the Moon is Illuminated
Oct 4
Waning Crescent
Oct 4
New
Oct 11
First Quarter
Oct 18
Full
Oct 26
Last Quarter

Hourly Weather History & Observations

Time (MDT) Temp. Windchill Dew Point Humidity Pressure Visibility Wind Dir Wind Speed Gust Speed Precip Events Conditions
12:53 AM 55.9 °F - 27.0 °F 33% 29.66 in 10.0 mi Calm Calm - N/A   Clear
1:53 AM 54.0 °F - 27.0 °F 35% 29.68 in 10.0 mi Calm Calm - N/A   Clear
2:53 AM 53.1 °F - 28.0 °F 38% 29.68 in 10.0 mi South 5.8 mph - N/A   Clear
3:53 AM 54.0 °F - 28.9 °F 38% 29.68 in 10.0 mi Calm Calm - N/A   Clear
4:53 AM 48.0 °F - 28.9 °F 48% 29.72 in 10.0 mi Calm Calm - N/A   Clear
5:53 AM 48.9 °F - 28.0 °F 44% 29.74 in 10.0 mi WSW 4.6 mph - N/A   Partly Cloudy
6:53 AM 44.1 °F 40.1 °F 28.9 °F 55% 30.00 in 10.0 mi North 6.9 mph - N/A   Clear
7:53 AM 46.9 °F - 30.0 °F 52% 30.01 in 10.0 mi NW 5.8 mph - N/A   Scattered Clouds
8:53 AM 51.1 °F - 26.1 °F 38% 30.03 in 10.0 mi NNW 8.1 mph - N/A   Partly Cloudy
9:53 AM 53.1 °F - 27.0 °F 37% 30.05 in 10.0 mi SW 6.9 mph - N/A   Scattered Clouds
10:53 AM 55.9 °F - 21.0 °F 26% 30.05 in 10.0 mi WSW 10.4 mph - N/A   Partly Cloudy
11:53 AM 59.0 °F - 18.0 °F 20% 30.06 in 10.0 mi SW 16.1 mph 23.0 mph N/A   Clear
12:53 PM 60.1 °F - 12.0 °F 15% 30.07 in 10.0 mi WSW 18.4 mph - N/A   Clear
1:53 PM 60.1 °F - 8.1 °F 13% 30.06 in 10.0 mi WSW 19.6 mph 26.5 mph N/A   Clear
2:53 PM 61.0 °F - 3.9 °F 10% 30.06 in 10.0 mi West 19.6 mph 28.8 mph N/A   Partly Cloudy
3:53 PM 60.1 °F - 7.0 °F 12% 30.07 in 10.0 mi West 15.0 mph 23.0 mph N/A   Clear
4:53 PM 59.0 °F - -0.9 °F 9% 30.07 in 10.0 mi WNW 18.4 mph 25.3 mph N/A   Clear
5:53 PM 57.0 °F - -9.0 °F 7% 30.07 in 10.0 mi NW 18.4 mph 29.9 mph N/A   Clear
6:53 PM 52.0 °F - -2.0 °F 11% 29.95 in 10.0 mi NNW 9.2 mph - N/A   Scattered Clouds
7:53 PM 51.1 °F - 7.0 °F 17% 29.97 in 10.0 mi NNW 6.9 mph - N/A   Overcast
8:53 PM 48.9 °F - 8.1 °F 19% 29.99 in 10.0 mi North 5.8 mph - N/A   Overcast
9:53 PM 48.0 °F - 7.0 °F 19% 29.98 in 10.0 mi North 8.1 mph - N/A   Overcast
10:53 PM 48.0 °F - 7.0 °F 19% 29.99 in 10.0 mi North 15.0 mph 23.0 mph N/A   Overcast
11:53 PM 46.9 °F - 10.9 °F 23% 30.00 in 10.0 mi North 15.0 mph - N/A   Overcast